When you browse on this site, cookies collect data to enhance your experience and personalize the content and advertising you see.
Visit our Privacy Policy to learn more. By continuing to use the site, you agree to this use of cookies and data.
  • Em Portugal
  • Lista de países
  • Para 7 dias
  • Temperatura da água
  • Mapas de satélite
  • Mapa do tempo
  • Widgets de tempo
  • user-avatar
    Iniciar Sessão

    Previsão horária em Novosledovo

    Hoje, 18 Fevereiro, Segunda-feira

    Tempo Temperatura Precipitação Vento Pressão Humidade
    00:00 -5°C° 0 mm 4 m/s 739 mmHg 80%
    01:00 -7°C° 0 mm 4 m/s 739 mmHg 82%
    02:00 -7°C° 0 mm 4 m/s 740 mmHg 84%
    03:00 -6°C° 0 mm 3 m/s 741 mmHg 85%
    04:00 -7°C° 0 mm 3 m/s 741 mmHg 86%
    05:00 -7°C° 0 mm 3 m/s 742 mmHg 87%
    06:00 -7°C° 0 mm 3 m/s 742 mmHg 87%
    07:00 -7°C° 0 mm 3 m/s 743 mmHg 87%
    08:00 -7°C° 0 mm 3 m/s 743 mmHg 87%
    09:00 -6°C° 0 mm 2 m/s 744 mmHg 84%
    10:00 -5°C° 0 mm 2 m/s 744 mmHg 81%
    11:00 -5°C° 0 mm 2 m/s 744 mmHg 77%
    12:00 -4°C° 0 mm 2 m/s 745 mmHg 74%
    13:00 -4°C° 0 mm 2 m/s 745 mmHg 71%
    14:00 -1°C° 0 mm 1 m/s 745 mmHg 67%
    15:00 -2°C° 0 mm 1 m/s 745 mmHg 72%
    16:00 -3°C° 0 mm 1 m/s 744 mmHg 76%
    17:00 -3°C° 0 mm 1 m/s 744 mmHg 80%
    18:00 -4°C° 0 mm 1 m/s 744 mmHg 82%
    19:00 -4°C° 0 mm 1 m/s 744 mmHg 83%
    20:00 -6°C° 0 mm 2 m/s 744 mmHg 84%
    21:00 -6°C° 0 mm 2 m/s 744 mmHg 83%
    22:00 -7°C° 0 mm 3 m/s 743 mmHg 81%
    23:00 -7°C° 0 mm 3 m/s 743 mmHg 79%

    Amanhã, 19 Fevereiro, Terça-feira

    Tempo Temperatura Precipitação Vento Pressão Humidade
    00:00 -6°C° 0 mm 3 m/s 743 mmHg 78%
    01:00 -7°C° 0 mm 4 m/s 742 mmHg 76%
    02:00 -7°C° 0 mm 4 m/s 742 mmHg 74%
    03:00 -7°C° 0 mm 4 m/s 741 mmHg 74%
    04:00 -7°C° 0 mm 5 m/s 740 mmHg 73%
    05:00 -6°C° 0 mm 5 m/s 740 mmHg 73%
    06:00 -6°C° 0 mm 5 m/s 739 mmHg 75%
    07:00 -6°C° 0 mm 5 m/s 739 mmHg 77%
    08:00 -6°C° 0 mm 5 m/s 739 mmHg 80%
    09:00 -4°C° 0 mm 5 m/s 738 mmHg 79%
    10:00 -2°C° 0 mm 5 m/s 738 mmHg 78%
    11:00 -1°C° 0 mm 5 m/s 737 mmHg 77%
    12:00 -1°C° 0 mm 5 m/s 737 mmHg 77%
    13:00 -1°C° 0 mm 5 m/s 736 mmHg 77%
    14:00 0°C° 0 mm 5 m/s 736 mmHg 78%
    15:00 -1°C° 0 mm 5 m/s 735 mmHg 80%
    16:00 -1°C° 0 mm 5 m/s 734 mmHg 82%
    17:00 -2°C° 0 mm 5 m/s 734 mmHg 85%
    18:00 -2°C° 0 mm 5 m/s 733 mmHg 86%
    19:00 -2°C° 0 mm 5 m/s 733 mmHg 87%
    20:00 -2°C° 0 mm 5 m/s 732 mmHg 88%
    21:00 -2°C° 0 mm 5 m/s 732 mmHg 88%
    22:00 -1°C° 0 mm 5 m/s 731 mmHg 89%
    23:00 -1°C° 0 mm 5 m/s 730 mmHg 90%

    Depois de amanhã, 20 Fevereiro, Quarta-feira

    Tempo Temperatura Precipitação Vento Pressão Humidade
    00:00 -1°C° 0.1 mm 5 m/s 729 mmHg 90%
    01:00 -1°C° 0.1 mm 5 m/s 729 mmHg 90%
    02:00 -1°C° 0.1 mm 5 m/s 728 mmHg 90%
    03:00 -1°C° 0.4 mm 5 m/s 728 mmHg 90%
    04:00 0°C° 0.4 mm 5 m/s 727 mmHg 91%
    05:00 0°C° 0.4 mm 5 m/s 727 mmHg 91%
    06:00 0°C° 0.1 mm 5 m/s 727 mmHg 91%
    07:00 0°C° 0.1 mm 5 m/s 727 mmHg 92%
    08:00 0°C° 0.1 mm 5 m/s 727 mmHg 92%
    09:00 0°C° 0.2 mm 5 m/s 727 mmHg 89%
    10:00 0°C° 0.2 mm 5 m/s 727 mmHg 86%
    11:00 0°C° 0.2 mm 5 m/s 727 mmHg 83%
    12:00 0°C° 0.1 mm 5 m/s 727 mmHg 83%
    13:00 0°C° 0.1 mm 5 m/s 727 mmHg 83%
    14:00 0°C° 0.1 mm 5 m/s 726 mmHg 83%
    15:00 0°C° 0.5 mm 5 m/s 726 mmHg 84%
    16:00 0°C° 0.5 mm 5 m/s 726 mmHg 85%
    17:00 0°C° 0.5 mm 5 m/s 726 mmHg 86%
    18:00 -1°C° 0.3 mm 5 m/s 726 mmHg 82%
    19:00 -2°C° 0.3 mm 5 m/s 726 mmHg 77%
    20:00 -4°C° 0.3 mm 5 m/s 726 mmHg 73%
    21:00 -5°C° 0.1 mm 5 m/s 726 mmHg 76%
    22:00 -5°C° 0.1 mm 5 m/s 726 mmHg 80%
    23:00 -6°C° 0.1 mm 5 m/s 726 mmHg 83%

    21 Fevereiro, Quinta-feira

    Tempo Temperatura Precipitação Vento Pressão Humidade
    00:00 -6°C° 0.4 mm 6 m/s 726 mmHg 84%
    01:00 -6°C° 0.4 mm 6 m/s 727 mmHg 85%
    02:00 -6°C° 0.4 mm 6 m/s 727 mmHg 86%
    03:00 -6°C° 0.3 mm 6 m/s 727 mmHg 85%
    04:00 -6°C° 0.3 mm 6 m/s 727 mmHg 83%
    05:00 -6°C° 0.3 mm 6 m/s 727 mmHg 82%
    06:00 -8°C° 0.2 mm 7 m/s 728 mmHg 80%
    07:00 -8°C° 0.2 mm 7 m/s 729 mmHg 79%
    08:00 -8°C° 0.2 mm 7 m/s 729 mmHg 77%
    09:00 -9°C° 0.1 mm 7 m/s 730 mmHg 77%
    10:00 -9°C° 0.1 mm 7 m/s 731 mmHg 77%
    11:00 -9°C° 0.1 mm 7 m/s 732 mmHg 77%
    12:00 -9°C° 0.1 mm 7 m/s 733 mmHg 75%
    13:00 -9°C° 0.1 mm 7 m/s 733 mmHg 74%
    14:00 -9°C° 0.1 mm 7 m/s 734 mmHg 72%
    15:00 -9°C° 0.1 mm 7 m/s 735 mmHg 73%
    16:00 -11°C° 0.1 mm 7 m/s 736 mmHg 73%
    17:00 -10°C° 0.1 mm 6 m/s 737 mmHg 74%
    18:00 -11°C° 0 mm 6 m/s 738 mmHg 74%
    19:00 -11°C° 0 mm 6 m/s 739 mmHg 74%
    20:00 -12°C° 0 mm 6 m/s 740 mmHg 73%
    21:00 -12°C° 0 mm 6 m/s 741 mmHg 74%
    22:00 -13°C° 0 mm 5 m/s 742 mmHg 74%
    23:00 -13°C° 0 mm 5 m/s 742 mmHg 74%

    22 Fevereiro, Sexta-feira

    Tempo Temperatura Precipitação Vento Pressão Humidade
    00:00 -13°C° 0 mm 5 m/s 743 mmHg 75%
    01:00 -14°C° 0 mm 5 m/s 744 mmHg 76%
    02:00 -14°C° 0 mm 5 m/s 745 mmHg 76%
    03:00 -14°C° 0 mm 5 m/s 745 mmHg 77%
    04:00 -14°C° 0 mm 5 m/s 746 mmHg 78%
    05:00 -15°C° 0 mm 5 m/s 747 mmHg 78%
    06:00 -15°C° 0 mm 5 m/s 747 mmHg 78%
    07:00 -15°C° 0 mm 5 m/s 748 mmHg 78%
    08:00 -14°C° 0 mm 5 m/s 749 mmHg 77%
    09:00 -14°C° 0 mm 5 m/s 749 mmHg 74%
    10:00 -13°C° 0 mm 5 m/s 750 mmHg 71%
    11:00 -12°C° 0 mm 5 m/s 750 mmHg 68%
    12:00 -11°C° 0 mm 5 m/s 751 mmHg 66%
    13:00 -11°C° 0 mm 5 m/s 751 mmHg 65%
    14:00 -11°C° 0 mm 5 m/s 751 mmHg 64%
    15:00 -11°C° 0 mm 5 m/s 752 mmHg 68%
    16:00 -11°C° 0 mm 5 m/s 752 mmHg 72%
    17:00 -11°C° 0 mm 4 m/s 752 mmHg 76%
    18:00 -11°C° 0 mm 4 m/s 753 mmHg 78%
    19:00 -11°C° 0 mm 4 m/s 753 mmHg 81%
    20:00 -12°C° 0 mm 4 m/s 754 mmHg 83%
    21:00 -12°C° 0 mm 3 m/s 754 mmHg 86%
    22:00 -12°C° 0 mm 3 m/s 754 mmHg 89%
    23:00 -12°C° 0 mm 2 m/s 755 mmHg 92%

    23 Fevereiro, Sábado

    Tempo Temperatura Precipitação Vento Pressão Humidade
    00:00 -12°C° 0 mm 2 m/s 755 mmHg 92%
    01:00 -10°C° 0 mm 1 m/s 755 mmHg 92%
    02:00 -10°C° 0 mm 1 m/s 755 mmHg 92%
    03:00 -10°C° 0 mm 1 m/s 754 mmHg 88%
    04:00 -10°C° 0 mm 2 m/s 754 mmHg 84%
    05:00 -10°C° 0 mm 2 m/s 754 mmHg 79%
    06:00 -9°C° 0 mm 2 m/s 753 mmHg 74%
    07:00 -10°C° 0 mm 3 m/s 753 mmHg 69%
    08:00 -10°C° 0 mm 4 m/s 752 mmHg 63%
    09:00 -10°C° 0.1 mm 4 m/s 752 mmHg 69%
    10:00 -10°C° 0.1 mm 5 m/s 751 mmHg 76%
    11:00 -10°C° 0.1 mm 5 m/s 750 mmHg 82%
    12:00 -10°C° 0.6 mm 5 m/s 750 mmHg 85%
    13:00 -10°C° 0.6 mm 5 m/s 749 mmHg 88%
    14:00 -9°C° 0.6 mm 4 m/s 749 mmHg 91%
    15:00 -8°C° 0.3 mm 4 m/s 748 mmHg 91%
    16:00 -8°C° 0.3 mm 4 m/s 748 mmHg 91%
    17:00 -8°C° 0.3 mm 4 m/s 748 mmHg 91%
    18:00 -8°C° 0.1 mm 4 m/s 748 mmHg 92%
    19:00 -6°C° 0.1 mm 3 m/s 747 mmHg 92%
    20:00 -6°C° 0.1 mm 3 m/s 747 mmHg 93%
    21:00 -6°C° 0 mm 3 m/s 747 mmHg 94%
    22:00 -6°C° 0 mm 3 m/s 747 mmHg 94%
    23:00 -6°C° 0 mm 3 m/s 746 mmHg 95%
    Mostrar mais